Location: Unspecified
(0.0000°N, 0.0000°E)
Time: 06:05:17
(UTC+00:00)

Envisat - Pass Details

Date: 19 June 2019
Orbit: 764 x 766 km, 98.1° (Epoch: 15 September)

Event Time Altitude Azimuth Distance (km) Brightness Sun altitude
Rises 18:22:24 0° 155° (SSE) 3,227 5.8 -4.8°
Reaches altitude 10° 18:24:49 10° 148° (SSE) 2,299 5.0 -5.4°
Maximum altitude 18:29:34 41° 78° (ENE) 1,095 3.5 -6.5°
Drops below altitude 10° 18:34:17 10° 9° (N) 2,290 5.7 -7.5°
Sets 18:36:41 0° 2° (N) 3,213 6.5 -8.1°
